Hulan, China
Current Conditions -  °F | °C
As of 5:00 AM on Saturday 25 Oct 2014 (Local Time) from ZYHB Reporting Station
Haze Haze  
Wind Chill: 34°   Ceiling: Unl
Heat Index: 39°   Visibility: 1.8mi
Dew Point: 37°   Wind: 7mph
Humidity: 93%   Direction: 30°NNE
Pressure: 29.8"   Gusts: NA
Location:  45.99°N, 126.6°E
Report Text: ZYHB 242100Z 03003MPS 3000 HZ NSC 04/03 Q1009 NOSIG
Loading
Personal Weather Stations






























Interactive Weather Map
Tropical Storm Tracking
New forecast layout! Learn more

10-Day Weather Forecast

Advertisements
Track Severe Weather on mobile